AKDT,Max TemperatureF,Mean TemperatureF,Min TemperatureF,Max Dew PointF,MeanDew PointF,Min DewpointF,Max Humidity, Mean Humidity, Min Humidity, Max Sea Level PressureIn, Mean Sea Level PressureIn, Min Sea Level PressureIn, Max VisibilityMiles, Mean VisibilityMiles, Min VisibilityMiles, Max Wind SpeedMPH, Mean Wind SpeedMPH, Max Gust SpeedMPH,PrecipitationIn, CloudCover, Events, WindDirDegrees
2013-9-1,57,54,51,55,52,48,100,93,88,29.81,29.60,29.38,10,8,2,18,10,21,1.38,8,,143
2013-9-2,55,54,53,54,52,46,100,92,77,29.38,29.22,29.15,10,6,2,29,19,36,1.97,8,,153
2013-9-3,55,53,51,52,49,48,94,87,82,29.21,29.13,29.07,10,9,5,26,20,29,0.11,7,,181
2013-9-4,51,48,44,48,44,39,100,81,67,29.61,29.46,29.22,10,10,3,26,14,31,0.08,7,,217
2013-9-5,51,50,48,48,46,39,94,84,66,29.82,29.74,29.62,10,10,7,23,14,26,0.04,7,,172
2013-9-6,60,52,44,46,44,43,100,77,52,29.82,29.63,29.50,10,10,10,14,8,21,0.00,5,,351
2013-9-7,57,50,44,50,45,41,93,80,67,29.67,29.63,29.58,10,10,5,13,7,,0.13,5,,347
2013-9-8,55,47,39,48,44,37,100,87,67,29.60,29.56,29.47,10,9,1,17,7,20,0.01,6,,39
2013-9-9,53,50,48,52,49,45,94,91,82,29.50,29.42,29.37,10,10,4,20,12,23,0.11,8,,22
2013-9-10,55,50,42,48,47,37,100,86,66,29.76,29.63,29.50,10,10,5,17,7,23,0.00,7,,290
2013-9-11,53,46,39,46,42,36,87,79,71,29.82,29.78,29.72,10,10,10,14,7,,0.00,5,,183
2013-9-12,51,48,46,48,45,43,94,87,76,29.72,29.61,29.56,10,10,7,22,15,28,0.05,8,,64
2013-9-13,60,53,46,48,46,43,93,78,59,30.01,29.83,29.66,10,10,10,14,10,17,0.00,6,,11
2013-9-14,59,50,42,46,44,39,100,76,59,30.13,30.07,30.02,10,10,10,22,8,25,0.00,0,,342
2013-9-15,53,48,42,43,39,36,93,72,54,30.13,30.09,30.01,10,10,10,18,10,23,0.00,2,,316
2013-9-16,55,47,39,45,40,34,93,76,58,30.00,29.85,29.74,10,10,10,15,7,20,0.00,4,,293
2013-9-17,57,50,42,37,32,27,81,55,33,29.79,29.69,29.64,10,10,7,20,12,25,0.00,1,,328
2013-9-18,50,44,37,36,31,28,87,63,43,29.85,29.81,29.77,10,10,10,17,10,21,0.00,1,,320
2013-9-19,50,44,37,37,33,28,81,66,54,29.78,29.74,29.67,10,10,8,15,7,18,0.00,6,,322
2013-9-20,41,37,32,32,30,28,87,78,70,29.67,29.64,29.61,10,10,10,8,5,,0.00,4,,354
2013-9-21,44,38,33,25,24,21,70,53,45,29.42,29.27,29.18,10,10,10,24,16,30,0.00,4,,324
2013-9-22,48,40,33,34,28,25,87,66,50,29.74,29.59,29.42,10,10,10,23,13,33,0.00,2,,310
2013-9-23,44,37,30,36,30,25,86,69,53,29.86,29.82,29.75,10,10,10,12,9,,0.00,4,,212
2013-9-24,48,40,33,46,35,25,93,79,56,29.84,29.58,29.34,10,9,3,29,13,34,0.02,7,,90
2013-9-25,53,48,44,46,45,43,100,91,72,29.45,29.29,29.22,10,8,2,17,12,,0.11,8,,61
2013-9-26,44,40,37,41,38,34,100,87,76,29.73,29.39,28.76,10,9,3,28,12,31,0.19,7,,101
2013-9-27,48,44,39,39,37,34,93,80,66,29.53,29.14,28.75,10,10,10,28,17,34,0.02,6,,332
2013-9-28,44,40,35,34,28,25,81,65,49,29.74,29.62,29.53,10,10,10,26,19,37,0.00,1,,319
2013-9-29,41,37,33,25,22,19,65,56,48,29.96,29.87,29.75,10,10,10,33,23,40,0.00,5,,324
2013-9-30,42,35,26,25,20,18,80,55,39,30.01,29.99,29.96,10,10,10,28,17,34,0.00,1,,329